Time,TemperatureF,DewpointF,PressureIn,WindDirection,WindDirectionDegrees,WindSpeedMPH,WindSpeedGustMPH,Humidity,HourlyPrecipIn,Conditions,Clouds,dailyrainin,SoftwareType,DateUTC
2013-02-15 00:00:00,30.9,21.3,28.70,South,170,0.0,0.0,67,0.00,,,0.00,VWS V14.00,2013-02-15 05:00:00,
2013-02-15 00:05:00,30.9,21.3,28.70,South,170,0.0,0.0,67,0.00,,,0.00,VWS V14.00,2013-02-15 05:05:00,
2013-02-15 00:10:00,30.9,21.3,28.70,South,170,0.0,0.0,67,0.00,,,0.00,VWS V14.00,2013-02-15 05:10:00,
2013-02-15 00:15:00,30.7,21.1,28.70,South,170,0.0,0.0,67,0.00,,,0.00,VWS V14.00,2013-02-15 05:15:00,
2013-02-15 00:20:00,30.7,21.1,28.70,South,170,0.0,0.0,67,0.00,,,0.00,VWS V14.00,2013-02-15 05:20:00,
2013-02-15 00:25:00,30.6,20.9,28.73,South,170,0.0,0.0,67,0.00,,,0.00,VWS V14.00,2013-02-15 05:25:00,
2013-02-15 00:30:00,30.6,20.9,28.73,South,170,0.0,0.0,67,0.00,,,0.00,VWS V14.00,2013-02-15 05:30:00,
2013-02-15 00:35:00,30.6,21.3,28.73,South,170,0.0,0.0,68,0.00,,,0.00,VWS V14.00,2013-02-15 05:35:00,
2013-02-15 00:40:00,30.4,21.1,28.73,South,170,0.0,0.0,68,0.00,,,0.00,VWS V14.00,2013-02-15 05:40:00,
2013-02-15 00:45:00,30.4,21.1,28.73,South,170,0.0,0.0,68,0.00,,,0.00,VWS V14.00,2013-02-15 05:45:00,
2013-02-15 00:50:00,30.2,20.9,28.73,South,170,0.0,0.0,68,0.00,,,0.00,VWS V14.00,2013-02-15 05:50:00,
2013-02-15 00:55:00,30.2,21.3,28.73,South,170,0.0,0.0,69,0.00,,,0.00,VWS V14.00,2013-02-15 05:55:00,
2013-02-15 01:00:00,30.2,21.3,28.73,South,170,0.0,0.0,69,0.00,,,0.00,VWS V14.00,2013-02-15 06:00:00,
2013-02-15 01:05:00,30.0,21.1,28.73,South,170,0.0,0.0,69,0.00,,,0.00,VWS V14.00,2013-02-15 06:05:00,
2013-02-15 01:10:00,30.2,21.3,28.73,South,170,0.0,0.0,69,0.00,,,0.00,VWS V14.00,2013-02-15 06:10:00,
2013-02-15 01:15:00,30.2,21.3,28.73,South,170,0.0,0.0,69,0.00,,,0.00,VWS V14.00,2013-02-15 06:15:00,
2013-02-15 01:20:00,30.0,21.1,28.73,South,170,0.0,0.0,69,0.00,,,0.00,VWS V14.00,2013-02-15 06:20:00,
2013-02-15 01:25:00,30.0,21.1,28.73,South,170,0.0,0.0,69,0.00,,,0.00,VWS V14.00,2013-02-15 06:25:00,
2013-02-15 01:30:00,30.2,21.6,28.73,South,170,0.0,0.0,70,0.00,,,0.00,VWS V14.00,2013-02-15 06:30:00,
2013-02-15 01:35:00,30.2,21.6,28.73,South,170,0.0,0.0,70,0.00,,,0.00,VWS V14.00,2013-02-15 06:35:00,
2013-02-15 01:40:00,30.0,21.4,28.73,South,170,0.0,0.0,70,0.00,,,0.00,VWS V14.00,2013-02-15 06:40:00,
2013-02-15 01:45:00,30.2,21.6,28.73,South,170,0.0,0.0,70,0.00,,,0.00,VWS V14.00,2013-02-15 06:45:00,
2013-02-15 01:50:00,30.2,21.6,28.73,South,170,0.0,0.0,70,0.00,,,0.00,VWS V14.00,2013-02-15 06:50:00,
2013-02-15 01:55:00,30.4,21.8,28.73,South,170,0.0,0.0,70,0.00,,,0.00,VWS V14.00,2013-02-15 06:55:00,
2013-02-15 02:00:00,30.4,21.8,28.73,South,170,0.0,0.0,70,0.00,,,0.00,VWS V14.00,2013-02-15 07:00:00,
2013-02-15 02:05:00,30.2,21.6,28.73,South,170,0.0,0.0,70,0.00,,,0.00,VWS V14.00,2013-02-15 07:05:00,
2013-02-15 02:10:00,30.2,21.6,28.73,South,170,0.0,0.0,70,0.00,,,0.00,VWS V14.00,2013-02-15 07:10:00,
2013-02-15 02:15:00,30.0,21.4,28.73,South,170,0.0,0.0,70,0.00,,,0.00,VWS V14.00,2013-02-15 07:15:00,
2013-02-15 02:20:00,29.8,21.3,28.73,South,170,0.0,0.0,70,0.00,,,0.00,VWS V14.00,2013-02-15 07:20:00,
2013-02-15 02:25:00,29.7,21.1,28.73,South,170,0.0,0.0,70,0.00,,,0.00,VWS V14.00,2013-02-15 07:25:00,
2013-02-15 02:30:00,29.7,21.4,28.73,South,170,0.0,0.0,71,0.00,,,0.00,VWS V14.00,2013-02-15 07:30:00,
2013-02-15 02:35:00,29.8,21.6,28.73,South,170,0.0,0.0,71,0.00,,,0.00,VWS V14.00,2013-02-15 07:35:00,
2013-02-15 02:40:00,29.8,21.6,28.70,South,170,0.0,0.0,71,0.00,,,0.00,VWS V14.00,2013-02-15 07:40:00,
2013-02-15 02:45:00,29.8,21.6,28.70,South,170,0.0,0.0,71,0.00,,,0.00,VWS V14.00,2013-02-15 07:45:00,
2013-02-15 02:50:00,29.8,21.6,28.70,South,170,0.0,0.0,71,0.00,,,0.00,VWS V14.00,2013-02-15 07:50:00,
2013-02-15 02:55:00,29.7,21.4,28.70,South,170,0.0,0.0,71,0.00,,,0.00,VWS V14.00,2013-02-15 07:55:00,
2013-02-15 03:00:00,29.5,21.2,28.70,South,170,0.0,0.0,71,0.00,,,0.00,VWS V14.00,2013-02-15 08:00:00,
2013-02-15 03:05:00,29.5,21.2,28.70,South,170,0.0,0.0,71,0.00,,,0.00,VWS V14.00,2013-02-15 08:05:00,
2013-02-15 03:10:00,29.5,21.2,28.70,South,170,0.0,0.0,71,0.00,,,0.00,VWS V14.00,2013-02-15 08:10:00,
2013-02-15 03:15:00,29.5,21.2,28.70,South,170,0.0,0.0,71,0.00,,,0.00,VWS V14.00,2013-02-15 08:15:00,
2013-02-15 03:20:00,29.5,21.2,28.70,South,170,0.0,0.0,71,0.00,,,0.00,VWS V14.00,2013-02-15 08:20:00,
2013-02-15 03:25:00,29.5,21.2,28.70,South,170,0.0,0.0,71,0.00,,,0.00,VWS V14.00,2013-02-15 08:25:00,
2013-02-15 03:30:00,29.5,21.2,28.70,South,170,0.0,0.0,71,0.00,,,0.00,VWS V14.00,2013-02-15 08:30:00,
2013-02-15 03:35:00,29.3,21.1,28.70,South,170,0.0,0.0,71,0.00,,,0.00,VWS V14.00,2013-02-15 08:35:00,
2013-02-15 03:40:00,29.3,21.1,28.70,South,170,0.0,0.0,71,0.00,,,0.00,VWS V14.00,2013-02-15 08:40:00,
2013-02-15 03:45:00,29.3,21.1,28.70,South,170,0.0,0.0,71,0.00,,,0.00,VWS V14.00,2013-02-15 08:45:00,
2013-02-15 03:50:00,29.3,21.1,28.70,South,170,0.0,0.0,71,0.00,,,0.00,VWS V14.00,2013-02-15 08:50:00,
2013-02-15 03:55:00,29.5,21.6,28.70,South,170,0.0,0.0,72,0.00,,,0.00,VWS V14.00,2013-02-15 08:55:00,
2013-02-15 04:00:00,29.5,21.6,28.70,South,170,0.0,0.0,72,0.00,,,0.00,VWS V14.00,2013-02-15 09:00:00,
2013-02-15 04:05:00,29.7,21.8,28.70,South,170,0.0,0.0,72,0.00,,,0.00,VWS V14.00,2013-02-15 09:05:00,
2013-02-15 04:10:00,29.7,21.8,28.70,South,170,0.0,0.0,72,0.00,,,0.00,VWS V14.00,2013-02-15 09:10:00,
2013-02-15 04:15:00,29.7,21.8,28.70,South,170,0.0,0.0,72,0.00,,,0.00,VWS V14.00,2013-02-15 09:15:00,
2013-02-15 04:20:00,29.7,21.8,28.70,South,170,0.0,0.0,72,0.00,,,0.00,VWS V14.00,2013-02-15 09:20:00,
2013-02-15 04:25:00,29.5,21.6,28.70,South,170,0.0,0.0,72,0.00,,,0.00,VWS V14.00,2013-02-15 09:25:00,
2013-02-15 04:30:00,29.3,21.4,28.70,South,170,0.0,0.0,72,0.00,,,0.00,VWS V14.00,2013-02-15 09:30:00,
2013-02-15 04:35:00,29.1,21.2,28.70,South,170,0.0,0.0,72,0.00,,,0.00,VWS V14.00,2013-02-15 09:35:00,
2013-02-15 04:40:00,28.9,21.1,28.70,South,170,0.0,0.0,72,0.00,,,0.00,VWS V14.00,2013-02-15 09:40:00,
2013-02-15 04:45:00,28.9,21.1,28.70,South,170,0.0,0.0,72,0.00,,,0.00,VWS V14.00,2013-02-15 09:45:00,
2013-02-15 04:50:00,28.9,21.1,28.70,South,170,0.0,0.0,72,0.00,,,0.00,VWS V14.00,2013-02-15 09:50:00,
2013-02-15 04:55:00,28.9,21.4,28.70,South,170,0.0,0.0,73,0.00,,,0.00,VWS V14.00,2013-02-15 09:55:00,
2013-02-15 05:00:00,29.1,21.6,28.70,South,170,0.0,0.0,73,0.00,,,0.00,VWS V14.00,2013-02-15 10:00:00,
2013-02-15 05:05:00,29.1,21.6,28.70,South,170,0.0,0.0,73,0.00,,,0.00,VWS V14.00,2013-02-15 10:05:00,
2013-02-15 05:10:00,28.9,21.1,28.70,South,170,0.0,0.0,72,0.00,,,0.00,VWS V14.00,2013-02-15 10:10:00,
2013-02-15 05:15:00,28.6,20.7,28.70,South,170,0.0,0.0,72,0.00,,,0.00,VWS V14.00,2013-02-15 10:15:00,
2013-02-15 05:20:00,28.6,20.7,28.70,South,170,0.0,0.0,72,0.00,,,0.00,VWS V14.00,2013-02-15 10:20:00,
2013-02-15 05:25:00,28.4,20.9,28.70,South,170,0.0,0.0,73,0.00,,,0.00,VWS V14.00,2013-02-15 10:25:00,
2013-02-15 05:30:00,28.6,20.7,28.70,South,170,0.0,0.0,72,0.00,,,0.00,VWS V14.00,2013-02-15 10:30:00,
2013-02-15 05:35:00,28.6,21.0,28.70,South,171,0.0,0.0,73,0.00,,,0.00,VWS V14.00,2013-02-15 10:35:00,
2013-02-15 05:40:00,28.6,20.7,28.70,South,171,0.0,0.0,72,0.00,,,0.00,VWS V14.00,2013-02-15 10:40:00,
2013-02-15 05:45:00,28.6,20.7,28.70,South,171,0.0,0.0,72,0.00,,,0.00,VWS V14.00,2013-02-15 10:45:00,
2013-02-15 05:50:00,28.6,20.7,28.70,South,171,0.0,0.0,72,0.00,,,0.00,VWS V14.00,2013-02-15 10:50:00,
2013-02-15 05:55:00,28.6,20.7,28.70,South,171,0.0,0.0,72,0.00,,,0.00,VWS V14.00,2013-02-15 10:55:00,
2013-02-15 06:00:00,28.6,20.7,28.70,South,171,0.0,0.0,72,0.00,,,0.00,VWS V14.00,2013-02-15 11:00:00,
2013-02-15 06:05:00,28.4,20.5,28.70,South,171,0.0,0.0,72,0.00,,,0.00,VWS V14.00,2013-02-15 11:05:00,
2013-02-15 06:10:00,28.2,20.4,28.70,South,171,0.0,0.0,72,0.00,,,0.00,VWS V14.00,2013-02-15 11:10:00,
2013-02-15 06:15:00,28.2,20.7,28.70,South,171,0.0,0.0,73,0.00,,,0.00,VWS V14.00,2013-02-15 11:15:00,
2013-02-15 06:20:00,28.4,20.9,28.70,South,171,0.0,0.0,73,0.00,,,0.00,VWS V14.00,2013-02-15 11:20:00,
2013-02-15 06:25:00,28.6,21.0,28.70,South,171,0.0,0.0,73,0.00,,,0.00,VWS V14.00,2013-02-15 11:25:00,
2013-02-15 06:29:00,28.6,21.0,28.70,South,171,0.0,0.0,73,0.00,,,0.00,VWS V14.00,2013-02-15 11:29:00,
2013-02-15 06:35:00,28.6,21.0,28.70,South,171,0.0,0.0,73,0.00,,,0.00,VWS V14.00,2013-02-15 11:35:00,
2013-02-15 06:39:00,28.6,20.7,28.70,South,171,0.0,0.0,72,0.00,,,0.00,VWS V14.00,2013-02-15 11:39:00,
2013-02-15 06:44:00,28.4,20.9,28.70,South,171,0.0,0.0,73,0.00,,,0.00,VWS V14.00,2013-02-15 11:44:00,
2013-02-15 06:49:00,28.2,20.7,28.70,South,171,0.0,0.0,73,0.00,,,0.00,VWS V14.00,2013-02-15 11:49:00,
2013-02-15 06:54:00,28.0,20.5,28.73,South,171,0.0,0.0,73,0.00,,,0.00,VWS V14.00,2013-02-15 11:54:00,
2013-02-15 06:59:00,28.0,20.5,28.73,South,171,0.0,0.0,73,0.00,,,0.00,VWS V14.00,2013-02-15 11:59:00,
2013-02-15 07:04:00,28.0,20.5,28.73,South,171,0.0,0.0,73,0.00,,,0.00,VWS V14.00,2013-02-15 12:04:00,
2013-02-15 07:09:00,28.0,20.5,28.73,South,171,0.0,0.0,73,0.00,,,0.00,VWS V14.00,2013-02-15 12:09:00,
2013-02-15 07:14:00,28.0,20.5,28.73,South,171,0.0,0.0,73,0.00,,,0.00,VWS V14.00,2013-02-15 12:14:00,
2013-02-15 07:19:00,28.0,20.5,28.73,South,171,0.0,0.0,73,0.00,,,0.00,VWS V14.00,2013-02-15 12:19:00,
2013-02-15 07:24:00,28.0,20.5,28.73,South,171,0.0,0.0,73,0.00,,,0.00,VWS V14.00,2013-02-15 12:24:00,
2013-02-15 07:29:00,28.0,20.5,28.73,South,171,0.0,0.0,73,0.00,,,0.00,VWS V14.00,2013-02-15 12:29:00,
2013-02-15 07:34:00,28.4,21.2,28.73,South,171,0.0,0.0,74,0.00,,,0.00,VWS V14.00,2013-02-15 12:34:00,
2013-02-15 07:40:00,28.6,21.0,28.73,South,171,0.0,0.0,73,0.00,,,0.00,VWS V14.00,2013-02-15 12:40:00,
2013-02-15 07:44:00,28.8,21.2,28.73,South,171,0.0,0.0,73,0.00,,,0.00,VWS V14.00,2013-02-15 12:44:00,
2013-02-15 07:49:00,28.9,21.4,28.73,South,171,0.0,0.0,73,0.00,,,0.00,VWS V14.00,2013-02-15 12:49:00,
2013-02-15 07:54:00,29.3,21.7,28.73,South,171,0.0,0.0,73,0.00,,,0.00,VWS V14.00,2013-02-15 12:54:00,
2013-02-15 07:59:00,29.5,22.2,28.73,South,171,0.0,0.0,74,0.00,,,0.00,VWS V14.00,2013-02-15 12:59:00,
2013-02-15 08:04:00,29.8,22.6,28.73,South,171,0.0,0.0,74,0.00,,,0.00,VWS V14.00,2013-02-15 13:04:00,
2013-02-15 08:09:00,30.2,22.9,28.73,South,171,0.0,0.0,74,0.00,,,0.00,VWS V14.00,2013-02-15 13:09:00,
2013-02-15 08:14:00,30.7,23.5,28.73,South,171,0.0,0.0,74,0.00,,,0.00,VWS V14.00,2013-02-15 13:14:00,
2013-02-15 08:19:00,31.1,24.1,28.73,South,171,0.0,0.0,75,0.00,,,0.00,VWS V14.00,2013-02-15 13:19:00,
2013-02-15 08:24:00,31.6,24.6,28.73,South,171,0.0,0.0,75,0.00,,,0.00,VWS V14.00,2013-02-15 13:24:00,
2013-02-15 08:29:00,32.2,25.5,28.73,South,171,0.0,0.0,76,0.00,,,0.00,VWS V14.00,2013-02-15 13:29:00,
2013-02-15 08:34:00,32.7,26.0,28.73,South,171,0.0,0.0,76,0.00,,,0.00,VWS V14.00,2013-02-15 13:34:00,
2013-02-15 08:39:00,33.4,27.0,28.73,South,171,0.0,0.0,77,0.00,,,0.00,VWS V14.00,2013-02-15 13:39:00,
2013-02-15 08:44:00,34.0,27.5,28.73,South,171,0.0,0.0,77,0.00,,,0.00,VWS V14.00,2013-02-15 13:44:00,
2013-02-15 08:50:00,34.5,28.4,28.73,South,171,0.0,0.0,78,0.00,,,0.00,VWS V14.00,2013-02-15 13:50:00,
2013-02-15 08:55:00,35.4,29.2,28.73,South,171,0.0,0.0,78,0.00,,,0.00,VWS V14.00,2013-02-15 13:55:00,
2013-02-15 09:00:00,36.0,29.8,28.73,South,171,0.0,0.0,78,0.00,,,0.00,VWS V14.00,2013-02-15 14:00:00,
2013-02-15 09:05:00,36.9,31.0,28.73,South,171,0.0,0.0,79,0.00,,,0.00,VWS V14.00,2013-02-15 14:05:00,
2013-02-15 09:10:00,37.6,32.0,28.73,SW,217,0.0,0.0,80,0.00,,,0.00,VWS V14.00,2013-02-15 14:10:00,
2013-02-15 09:15:00,38.5,32.2,28.73,SW,217,0.0,0.0,78,0.00,,,0.00,VWS V14.00,2013-02-15 14:15:00,
2013-02-15 09:20:00,39.4,30.4,28.73,SW,217,0.0,0.0,70,0.00,,,0.00,VWS V14.00,2013-02-15 14:20:00,
2013-02-15 09:25:00,40.1,28.1,28.73,SW,217,0.0,0.0,62,0.00,,,0.00,VWS V14.00,2013-02-15 14:25:00,
2013-02-15 09:30:00,40.8,25.9,28.73,SSW,211,0.0,0.0,55,0.00,,,0.00,VWS V14.00,2013-02-15 14:30:00,
2013-02-15 09:35:00,41.5,26.6,28.73,SSW,211,0.0,0.0,55,0.00,,,0.00,VWS V14.00,2013-02-15 14:35:00,
2013-02-15 09:40:00,42.3,25.9,28.73,SW,218,0.0,0.0,52,0.00,,,0.00,VWS V14.00,2013-02-15 14:40:00,
2013-02-15 09:45:00,43.0,26.1,28.73,SW,218,0.0,0.0,51,0.00,,,0.00,VWS V14.00,2013-02-15 14:45:00,
2013-02-15 09:50:00,43.5,26.1,28.73,SW,218,0.0,0.0,50,0.00,,,0.00,VWS V14.00,2013-02-15 14:50:00,
2013-02-15 09:55:00,44.4,25.5,28.73,WSW,240,0.0,0.0,47,0.00,,,0.00,VWS V14.00,2013-02-15 14:55:00,
2013-02-15 10:00:00,45.5,24.3,28.73,West,272,3.6,3.6,43,0.00,,,0.00,VWS V14.00,2013-02-15 15:00:00,
2013-02-15 10:05:00,46.6,24.7,28.73,SW,225,3.6,3.6,42,0.00,,,0.00,VWS V14.00,2013-02-15 15:05:00,
2013-02-15 10:10:00,47.5,25.0,28.73,WSW,248,2.7,2.7,41,0.00,,,0.00,VWS V14.00,2013-02-15 15:10:00,
2013-02-15 10:15:00,48.2,24.4,28.73,WNW,301,3.1,3.1,39,0.00,,,0.00,VWS V14.00,2013-02-15 15:15:00,
2013-02-15 10:20:00,49.1,25.2,28.73,NNW,332,3.1,3.1,39,0.00,,,0.00,VWS V14.00,2013-02-15 15:20:00,
2013-02-15 10:24:00,49.6,25.7,28.73,NW,319,3.1,3.1,39,0.00,,,0.00,VWS V14.00,2013-02-15 15:24:00,
2013-02-15 10:29:00,50.2,25.6,28.73,NNW,337,3.6,3.6,38,0.00,,,0.00,VWS V14.00,2013-02-15 15:29:00,
2013-02-15 10:34:00,50.5,25.9,28.73,West,259,0.0,3.1,38,0.00,,,0.00,VWS V14.00,2013-02-15 15:34:00,
2013-02-15 10:39:00,50.9,26.2,28.73,SSW,193,2.7,2.7,38,0.00,,,0.00,VWS V14.00,2013-02-15 15:39:00,
2013-02-15 10:44:00,51.3,26.5,28.73,SW,220,3.1,4.9,38,0.00,,,0.00,VWS V14.00,2013-02-15 15:44:00,
2013-02-15 10:49:00,51.6,26.2,28.73,SW,228,3.1,3.6,37,0.00,,,0.00,VWS V14.00,2013-02-15 15:49:00,
2013-02-15 10:54:00,52.2,26.7,28.73,WSW,244,5.8,5.8,37,0.00,,,0.00,VWS V14.00,2013-02-15 15:54:00,
2013-02-15 10:59:00,52.5,27.0,28.73,NNW,332,3.1,3.1,37,0.00,,,0.00,VWS V14.00,2013-02-15 15:59:00,
2013-02-15 11:04:00,53.1,27.5,28.73,NW,326,4.9,4.9,37,0.00,,,0.00,VWS V14.00,2013-02-15 16:04:00,
2013-02-15 11:09:00,53.6,27.3,28.73,SW,222,2.2,2.2,36,0.00,,,0.00,VWS V14.00,2013-02-15 16:09:00,
2013-02-15 11:14:00,54.0,27.6,28.73,NNW,330,0.0,0.0,36,0.00,,,0.00,VWS V14.00,2013-02-15 16:14:00,
2013-02-15 11:19:00,54.5,28.1,28.73,WSW,258,5.4,6.3,36,0.00,,,0.00,VWS V14.00,2013-02-15 16:19:00,
2013-02-15 11:24:00,54.9,28.4,28.73,WSW,237,4.0,4.0,36,0.00,,,0.00,VWS V14.00,2013-02-15 16:24:00,
2013-02-15 11:29:00,55.2,28.8,28.73,North,1,2.7,2.7,36,0.00,,,0.00,VWS V14.00,2013-02-15 16:29:00,
2013-02-15 11:34:00,55.6,29.1,28.73,West,281,2.2,4.9,36,0.00,,,0.00,VWS V14.00,2013-02-15 16:34:00,
2013-02-15 11:39:00,55.9,29.4,28.73,WSW,243,2.7,2.7,36,0.00,,,0.00,VWS V14.00,2013-02-15 16:39:00,
2013-02-15 11:44:00,56.1,29.5,28.73,SSW,210,3.6,4.0,36,0.00,,,0.00,VWS V14.00,2013-02-15 16:44:00,
2013-02-15 11:49:00,56.3,29.7,28.73,West,262,3.1,3.1,36,0.00,,,0.00,VWS V14.00,2013-02-15 16:49:00,
2013-02-15 11:54:00,56.5,29.9,28.70,SSE,160,0.0,0.0,36,0.00,,,0.00,VWS V14.00,2013-02-15 16:54:00,
2013-02-15 11:59:00,56.5,29.9,28.70,West,264,4.0,6.3,36,0.00,,,0.00,VWS V14.00,2013-02-15 16:59:00,
2013-02-15 12:04:00,56.7,30.0,28.70,WSW,239,4.0,4.0,36,0.00,,,0.00,VWS V14.00,2013-02-15 17:04:00,
2013-02-15 12:09:00,56.8,30.2,28.70,NNE,30,0.0,0.0,36,0.00,,,0.00,VWS V14.00,2013-02-15 17:09:00,
2013-02-15 12:14:00,56.8,30.2,28.70,WSW,243,6.3,6.3,36,0.00,,,0.00,VWS V14.00,2013-02-15 17:14:00,
2013-02-15 12:19:00,57.0,30.4,28.70,West,263,3.6,4.0,36,0.00,,,0.00,VWS V14.00,2013-02-15 17:19:00,
2013-02-15 12:24:00,57.2,29.8,28.70,SSW,209,3.1,3.6,35,0.00,,,0.00,VWS V14.00,2013-02-15 17:24:00,
2013-02-15 12:29:00,57.6,30.1,28.70,SSW,196,2.7,2.7,35,0.00,,,0.00,VWS V14.00,2013-02-15 17:29:00,
2013-02-15 12:34:00,57.9,30.5,28.70,SW,216,2.2,2.2,35,0.00,,,0.00,VWS V14.00,2013-02-15 17:34:00,
2013-02-15 12:39:00,58.1,30.6,28.67,SSW,213,4.0,6.3,35,0.00,,,0.00,VWS V14.00,2013-02-15 17:39:00,
2013-02-15 12:44:00,58.1,30.6,28.67,SSW,203,3.1,3.1,35,0.00,,,0.00,VWS V14.00,2013-02-15 17:44:00,
2013-02-15 12:49:00,58.3,30.8,28.67,West,268,5.8,5.8,35,0.00,,,0.00,VWS V14.00,2013-02-15 17:49:00,
2013-02-15 12:54:00,58.1,30.6,28.67,West,270,3.1,3.1,35,0.00,,,0.00,VWS V14.00,2013-02-15 17:54:00,
2013-02-15 12:59:00,57.9,30.5,28.67,SE,126,2.2,2.2,35,0.00,,,0.00,VWS V14.00,2013-02-15 17:59:00,
2013-02-15 13:04:00,58.1,30.6,28.67,NW,305,3.6,3.6,35,0.00,,,0.00,VWS V14.00,2013-02-15 18:04:00,
2013-02-15 13:09:00,58.3,30.8,28.67,West,279,2.7,2.7,35,0.00,,,0.00,VWS V14.00,2013-02-15 18:09:00,
2013-02-15 13:14:00,58.3,30.8,28.67,WSW,245,5.8,5.8,35,0.00,,,0.00,VWS V14.00,2013-02-15 18:14:00,
2013-02-15 13:19:00,58.5,30.9,28.67,WSW,251,0.0,0.0,35,0.00,,,0.00,VWS V14.00,2013-02-15 18:19:00,
2013-02-15 13:24:00,58.5,30.9,28.67,NNW,336,0.0,0.0,35,0.00,,,0.00,VWS V14.00,2013-02-15 18:24:00,
2013-02-15 13:29:00,58.5,30.9,28.67,SW,224,5.4,5.4,35,0.00,,,0.00,VWS V14.00,2013-02-15 18:29:00,
2013-02-15 13:34:00,58.5,30.9,28.67,WSW,254,2.2,2.2,35,0.00,,,0.00,VWS V14.00,2013-02-15 18:34:00,
2013-02-15 13:39:00,58.8,31.2,28.67,WSW,251,5.4,5.4,35,0.00,,,0.00,VWS V14.00,2013-02-15 18:39:00,
2013-02-15 13:44:00,59.0,31.4,28.67,SW,236,3.6,5.4,35,0.00,,,0.00,VWS V14.00,2013-02-15 18:44:00,
2013-02-15 13:49:00,59.0,31.4,28.67,NNW,327,2.7,2.7,35,0.00,,,0.00,VWS V14.00,2013-02-15 18:49:00,
2013-02-15 13:54:00,58.8,31.2,28.64,SW,236,4.0,4.0,35,0.00,,,0.00,VWS V14.00,2013-02-15 18:54:00,
2013-02-15 13:59:00,58.8,31.2,28.64,NW,306,4.0,5.4,35,0.00,,,0.00,VWS V14.00,2013-02-15 18:59:00,
2013-02-15 14:04:00,59.0,31.4,28.64,SW,230,5.4,5.4,35,0.00,,,0.00,VWS V14.00,2013-02-15 19:04:00,
2013-02-15 14:09:00,59.4,31.7,28.64,NNE,28,4.0,4.0,35,0.00,,,0.00,VWS V14.00,2013-02-15 19:09:00,
2013-02-15 14:14:00,59.5,31.9,28.64,South,180,3.6,3.6,35,0.00,,,0.00,VWS V14.00,2013-02-15 19:14:00,
2013-02-15 14:19:00,59.5,31.9,28.64,West,267,4.0,4.0,35,0.00,,,0.00,VWS V14.00,2013-02-15 19:19:00,
2013-02-15 14:24:00,59.5,31.9,28.64,West,267,5.8,5.8,35,0.00,,,0.00,VWS V14.00,2013-02-15 19:24:00,
2013-02-15 14:29:00,59.5,31.9,28.64,SSE,149,2.7,3.1,35,0.00,,,0.00,VWS V14.00,2013-02-15 19:29:00,
2013-02-15 14:34:00,59.7,32.0,28.64,South,191,3.6,3.6,35,0.00,,,0.00,VWS V14.00,2013-02-15 19:34:00,
2013-02-15 14:39:00,59.7,32.0,28.64,WSW,247,3.6,3.6,35,0.00,,,0.00,VWS V14.00,2013-02-15 19:39:00,
2013-02-15 14:44:00,59.9,32.2,28.64,SW,222,2.7,4.9,35,0.00,,,0.00,VWS V14.00,2013-02-15 19:44:00,
2013-02-15 14:49:00,60.1,32.4,28.64,South,184,2.2,3.6,35,0.00,,,0.00,VWS V14.00,2013-02-15 19:49:00,
2013-02-15 14:54:00,60.3,32.5,28.64,WSW,251,4.0,4.0,35,0.00,,,0.00,VWS V14.00,2013-02-15 19:54:00,
2013-02-15 14:59:00,60.1,32.4,28.64,WSW,238,4.9,4.9,35,0.00,,,0.00,VWS V14.00,2013-02-15 19:59:00,
2013-02-15 15:04:00,60.1,32.4,28.64,SE,138,2.7,2.7,35,0.00,,,0.00,VWS V14.00,2013-02-15 20:04:00,
2013-02-15 15:09:00,60.1,32.4,28.61,WNW,296,4.0,4.0,35,0.00,,,0.00,VWS V14.00,2013-02-15 20:09:00,
2013-02-15 15:14:00,60.1,32.4,28.61,SW,225,4.5,4.5,35,0.00,,,0.00,VWS V14.00,2013-02-15 20:14:00,
2013-02-15 15:19:00,60.1,32.4,28.61,NW,318,2.7,2.7,35,0.00,,,0.00,VWS V14.00,2013-02-15 20:19:00,
2013-02-15 15:24:00,60.1,32.4,28.61,SW,231,4.0,4.5,35,0.00,,,0.00,VWS V14.00,2013-02-15 20:24:00,
2013-02-15 15:29:00,60.1,32.4,28.61,South,191,2.7,3.6,35,0.00,,,0.00,VWS V14.00,2013-02-15 20:29:00,
2013-02-15 15:34:00,59.9,32.2,28.61,WSW,238,6.3,8.1,35,0.00,,,0.00,VWS V14.00,2013-02-15 20:34:00,
2013-02-15 15:39:00,59.9,32.2,28.61,SW,226,3.1,4.9,35,0.00,,,0.00,VWS V14.00,2013-02-15 20:39:00,
2013-02-15 15:44:00,59.9,32.2,28.61,WSW,247,0.0,0.0,35,0.00,,,0.00,VWS V14.00,2013-02-15 20:44:00,
2013-02-15 15:49:00,59.7,32.0,28.61,SW,236,3.6,3.6,35,0.00,,,0.00,VWS V14.00,2013-02-15 20:49:00,
2013-02-15 15:54:00,59.7,32.0,28.61,SW,222,4.9,7.6,35,0.00,,,0.00,VWS V14.00,2013-02-15 20:54:00,
2013-02-15 15:59:00,59.7,32.0,28.61,SSW,201,2.2,3.1,35,0.00,,,0.00,VWS V14.00,2013-02-15 20:59:00,
2013-02-15 16:04:00,59.7,32.0,28.61,ENE,61,4.0,4.0,35,0.00,,,0.00,VWS V14.00,2013-02-15 21:04:00,
2013-02-15 16:09:00,59.5,31.9,28.61,ESE,103,2.2,2.7,35,0.00,,,0.00,VWS V14.00,2013-02-15 21:09:00,
2013-02-15 16:14:00,59.4,31.7,28.61,WNW,282,2.2,2.2,35,0.00,,,0.00,VWS V14.00,2013-02-15 21:14:00,
2013-02-15 16:19:00,59.7,32.0,28.61,South,191,2.7,4.0,35,0.00,,,0.00,VWS V14.00,2013-02-15 21:19:00,
2013-02-15 16:24:00,59.9,32.2,28.61,WSW,239,3.6,3.6,35,0.00,,,0.00,VWS V14.00,2013-02-15 21:24:00,
2013-02-15 16:29:00,60.1,32.4,28.61,ENE,73,0.0,2.7,35,0.00,,,0.00,VWS V14.00,2013-02-15 21:29:00,
2013-02-15 16:34:00,60.1,32.4,28.61,SW,226,0.0,2.7,35,0.00,,,0.00,VWS V14.00,2013-02-15 21:34:00,
2013-02-15 16:39:00,59.7,32.0,28.59,WSW,250,3.1,3.6,35,0.00,,,0.00,VWS V14.00,2013-02-15 21:39:00,
2013-02-15 16:44:00,59.7,32.0,28.59,WSW,245,4.0,5.4,35,0.00,,,0.00,VWS V14.00,2013-02-15 21:44:00,
2013-02-15 16:49:00,59.5,31.9,28.59,WSW,251,3.1,3.1,35,0.00,,,0.00,VWS V14.00,2013-02-15 21:49:00,
2013-02-15 16:54:00,59.4,31.7,28.59,SSW,200,2.2,3.1,35,0.00,,,0.00,VWS V14.00,2013-02-15 21:54:00,
2013-02-15 16:59:00,59.0,31.4,28.59,WSW,245,2.2,2.2,35,0.00,,,0.00,VWS V14.00,2013-02-15 21:59:00,
2013-02-15 17:04:00,58.8,31.2,28.59,West,266,2.7,3.1,35,0.00,,,0.00,VWS V14.00,2013-02-15 22:04:00,
2013-02-15 17:09:00,58.5,30.9,28.59,SW,225,2.7,4.0,35,0.00,,,0.00,VWS V14.00,2013-02-15 22:09:00,
2013-02-15 17:14:00,58.1,30.6,28.59,SSW,212,2.2,3.6,35,0.00,,,0.00,VWS V14.00,2013-02-15 22:14:00,
2013-02-15 17:19:00,57.9,30.5,28.59,SW,227,0.0,2.2,35,0.00,,,0.00,VWS V14.00,2013-02-15 22:19:00,
2013-02-15 17:24:00,57.6,30.1,28.59,SW,227,0.0,0.0,35,0.00,,,0.00,VWS V14.00,2013-02-15 22:24:00,
2013-02-15 17:29:00,57.2,29.8,28.59,SW,227,0.0,0.0,35,0.00,,,0.00,VWS V14.00,2013-02-15 22:29:00,
2013-02-15 17:34:00,56.8,29.5,28.59,SW,227,0.0,0.0,35,0.00,,,0.00,VWS V14.00,2013-02-15 22:34:00,
2013-02-15 17:39:00,56.3,29.0,28.59,SW,227,0.0,0.0,35,0.00,,,0.00,VWS V14.00,2013-02-15 22:39:00,
2013-02-15 17:44:00,55.8,28.5,28.59,SW,227,0.0,0.0,35,0.00,,,0.00,VWS V14.00,2013-02-15 22:44:00,
2013-02-15 17:49:00,55.2,28.8,28.59,SW,227,0.0,0.0,36,0.00,,,0.00,VWS V14.00,2013-02-15 22:49:00,
2013-02-15 17:54:00,54.5,28.1,28.59,SW,227,0.0,0.0,36,0.00,,,0.00,VWS V14.00,2013-02-15 22:54:00,
2013-02-15 17:59:00,54.0,27.6,28.59,SW,227,0.0,0.0,36,0.00,,,0.00,VWS V14.00,2013-02-15 22:59:00,
2013-02-15 18:04:00,53.2,27.0,28.59,SW,227,0.0,0.0,36,0.00,,,0.00,VWS V14.00,2013-02-15 23:04:00,
2013-02-15 18:09:00,53.1,26.8,28.59,SW,227,0.0,0.0,36,0.00,,,0.00,VWS V14.00,2013-02-15 23:09:00,
2013-02-15 18:14:00,52.2,26.0,28.59,SW,227,0.0,0.0,36,0.00,,,0.00,VWS V14.00,2013-02-15 23:14:00,
2013-02-15 18:19:00,51.3,25.9,28.59,SW,227,0.0,0.0,37,0.00,,,0.00,VWS V14.00,2013-02-15 23:19:00,
2013-02-15 18:24:00,50.5,25.2,28.59,SW,227,0.0,0.0,37,0.00,,,0.00,VWS V14.00,2013-02-15 23:24:00,
2013-02-15 18:29:00,49.6,24.5,28.59,SW,227,0.0,0.0,37,0.00,,,0.00,VWS V14.00,2013-02-15 23:29:00,
2013-02-15 18:34:00,48.9,23.8,28.59,SW,227,0.0,0.0,37,0.00,,,0.00,VWS V14.00,2013-02-15 23:34:00,
2013-02-15 18:39:00,48.2,23.2,28.59,SW,227,0.0,0.0,37,0.00,,,0.00,VWS V14.00,2013-02-15 23:39:00,
2013-02-15 18:44:00,47.5,23.2,28.59,SW,227,0.0,0.0,38,0.00,,,0.00,VWS V14.00,2013-02-15 23:44:00,
2013-02-15 18:49:00,47.1,22.8,28.59,SW,227,0.0,0.0,38,0.00,,,0.00,VWS V14.00,2013-02-15 23:49:00,
2013-02-15 18:54:00,46.6,22.4,28.59,SW,227,0.0,0.0,38,0.00,,,0.00,VWS V14.00,2013-02-15 23:54:00,
2013-02-15 18:59:00,45.9,22.3,28.59,SW,227,0.0,0.0,39,0.00,,,0.00,VWS V14.00,2013-02-15 23:59:00,
2013-02-15 19:04:00,45.5,22.0,28.59,SW,227,0.0,0.0,39,0.00,,,0.00,VWS V14.00,2013-02-16 00:04:00,
2013-02-15 19:09:00,44.8,21.4,28.59,SW,227,0.0,0.0,39,0.00,,,0.00,VWS V14.00,2013-02-16 00:09:00,
2013-02-15 19:14:00,44.2,21.5,28.59,SW,227,0.0,0.0,40,0.00,,,0.00,VWS V14.00,2013-02-16 00:14:00,
2013-02-15 19:19:00,44.1,21.3,28.59,SW,227,0.0,0.0,40,0.00,,,0.00,VWS V14.00,2013-02-16 00:19:00,
2013-02-15 19:24:00,43.5,20.8,28.61,SW,227,0.0,0.0,40,0.00,,,0.00,VWS V14.00,2013-02-16 00:24:00,
2013-02-15 19:29:00,43.0,20.3,28.61,SW,227,0.0,0.0,40,0.00,,,0.00,VWS V14.00,2013-02-16 00:29:00,
2013-02-15 19:34:00,42.8,20.2,28.61,SW,227,0.0,0.0,40,0.00,,,0.00,VWS V14.00,2013-02-16 00:34:00,
2013-02-15 19:39:00,42.4,20.4,28.61,SW,227,0.0,0.0,41,0.00,,,0.00,VWS V14.00,2013-02-16 00:39:00,
2013-02-15 19:44:00,42.1,20.1,28.61,SW,227,0.0,0.0,41,0.00,,,0.00,VWS V14.00,2013-02-16 00:44:00,
2013-02-15 19:49:00,41.9,20.5,28.61,SW,227,0.0,0.0,42,0.00,,,0.00,VWS V14.00,2013-02-16 00:49:00,
2013-02-15 19:54:00,41.7,20.3,28.61,SW,227,0.0,0.0,42,0.00,,,0.00,VWS V14.00,2013-02-16 00:54:00,
2013-02-15 19:59:00,41.4,20.0,28.61,SW,227,0.0,0.0,42,0.00,,,0.00,VWS V14.00,2013-02-16 00:59:00,
2013-02-15 20:04:00,41.2,19.9,28.61,SW,227,0.0,0.0,42,0.00,,,0.00,VWS V14.00,2013-02-16 01:04:00,
2013-02-15 20:09:00,40.8,20.1,28.61,SW,227,0.0,0.0,43,0.00,,,0.00,VWS V14.00,2013-02-16 01:09:00,
2013-02-15 20:14:00,40.6,19.9,28.61,SW,227,0.0,0.0,43,0.00,,,0.00,VWS V14.00,2013-02-16 01:14:00,
2013-02-15 20:19:00,40.6,19.9,28.61,SW,227,0.0,0.0,43,0.00,,,0.00,VWS V14.00,2013-02-16 01:19:00,
2013-02-15 20:24:00,40.6,20.5,28.61,SW,227,0.0,0.0,44,0.00,,,0.00,VWS V14.00,2013-02-16 01:24:00,
2013-02-15 20:29:00,40.3,20.1,28.61,SW,227,0.0,0.0,44,0.00,,,0.00,VWS V14.00,2013-02-16 01:29:00,
2013-02-15 20:34:00,39.9,19.8,28.61,SW,227,0.0,0.0,44,0.00,,,0.00,VWS V14.00,2013-02-16 01:34:00,
2013-02-15 20:39:00,39.7,20.1,28.61,SW,227,0.0,0.0,45,0.00,,,0.00,VWS V14.00,2013-02-16 01:39:00,
2013-02-15 20:44:00,39.4,19.8,28.61,SW,227,0.0,0.0,45,0.00,,,0.00,VWS V14.00,2013-02-16 01:44:00,
2013-02-15 20:49:00,39.2,19.7,28.61,SW,227,0.0,0.0,45,0.00,,,0.00,VWS V14.00,2013-02-16 01:49:00,
2013-02-15 20:54:00,38.8,19.8,28.61,SW,227,0.0,0.0,46,0.00,,,0.00,VWS V14.00,2013-02-16 01:54:00,
2013-02-15 20:59:00,38.7,19.7,28.61,SW,227,0.0,0.0,46,0.00,,,0.00,VWS V14.00,2013-02-16 01:59:00,
2013-02-15 21:04:00,38.5,19.5,28.61,SW,227,0.0,0.0,46,0.00,,,0.00,VWS V14.00,2013-02-16 02:04:00,
2013-02-15 21:09:00,38.3,20.4,28.61,SW,227,0.0,0.0,48,0.00,,,0.00,VWS V14.00,2013-02-16 02:09:00,
2013-02-15 21:14:00,38.3,19.9,28.61,SW,227,0.0,0.0,47,0.00,,,0.00,VWS V14.00,2013-02-16 02:14:00,
2013-02-15 21:19:00,38.1,20.7,28.61,SW,227,0.0,0.0,49,0.00,,,0.00,VWS V14.00,2013-02-16 02:19:00,
2013-02-15 21:24:00,38.1,20.7,28.61,SW,227,0.0,0.0,49,0.00,,,0.00,VWS V14.00,2013-02-16 02:24:00,
2013-02-15 21:29:00,37.9,20.5,28.61,SW,227,0.0,0.0,49,0.00,,,0.00,VWS V14.00,2013-02-16 02:29:00,
2013-02-15 21:34:00,37.9,20.5,28.61,SW,227,0.0,0.0,49,0.00,,,0.00,VWS V14.00,2013-02-16 02:34:00,
2013-02-15 21:39:00,37.9,20.5,28.61,SW,227,0.0,0.0,49,0.00,,,0.00,VWS V14.00,2013-02-16 02:39:00,
2013-02-15 21:44:00,37.8,20.3,28.61,SW,227,0.0,0.0,49,0.00,,,0.00,VWS V14.00,2013-02-16 02:44:00,
2013-02-15 21:49:00,37.6,20.2,28.61,SW,227,0.0,0.0,49,0.00,,,0.00,VWS V14.00,2013-02-16 02:49:00,
2013-02-15 21:54:00,37.4,20.5,28.61,SW,227,0.0,0.0,50,0.00,,,0.00,VWS V14.00,2013-02-16 02:54:00,
2013-02-15 21:59:00,37.4,20.5,28.61,SW,227,0.0,0.0,50,0.00,,,0.00,VWS V14.00,2013-02-16 02:59:00,
2013-02-15 22:04:00,37.2,20.3,28.61,SW,227,0.0,0.0,50,0.00,,,0.00,VWS V14.00,2013-02-16 03:04:00,
2013-02-15 22:09:00,37.0,20.1,28.61,SW,227,0.0,0.0,50,0.00,,,0.00,VWS V14.00,2013-02-16 03:09:00,
2013-02-15 22:14:00,37.0,20.1,28.61,SW,227,0.0,0.0,50,0.00,,,0.00,VWS V14.00,2013-02-16 03:14:00,
2013-02-15 22:19:00,36.9,20.4,28.61,SW,227,0.0,0.0,51,0.00,,,0.00,VWS V14.00,2013-02-16 03:19:00,
2013-02-15 22:24:00,36.9,20.4,28.61,SW,227,0.0,0.0,51,0.00,,,0.00,VWS V14.00,2013-02-16 03:24:00,
2013-02-15 22:29:00,36.9,20.4,28.61,SW,227,0.0,0.0,51,0.00,,,0.00,VWS V14.00,2013-02-16 03:29:00,
2013-02-15 22:34:00,36.9,20.4,28.61,SW,227,0.0,0.0,51,0.00,,,0.00,VWS V14.00,2013-02-16 03:34:00,
2013-02-15 22:39:00,36.9,20.9,28.61,SW,227,0.0,0.0,52,0.00,,,0.00,VWS V14.00,2013-02-16 03:39:00,
2013-02-15 22:44:00,36.9,20.9,28.61,SW,227,0.0,0.0,52,0.00,,,0.00,VWS V14.00,2013-02-16 03:44:00,
2013-02-15 22:49:00,36.7,20.3,28.61,NNW,331,0.0,2.2,51,0.00,,,0.00,VWS V14.00,2013-02-16 03:49:00,
2013-02-15 22:54:00,36.1,20.2,28.64,North,357,0.0,0.0,52,0.00,,,0.00,VWS V14.00,2013-02-16 03:54:00,
2013-02-15 22:59:00,37.2,21.7,28.64,NW,318,0.0,0.0,53,0.00,,,0.00,VWS V14.00,2013-02-16 03:59:00,
2013-02-15 23:04:00,38.3,21.8,28.64,NW,318,0.0,0.0,51,0.00,,,0.00,VWS V14.00,2013-02-16 04:04:00,
2013-02-15 23:09:00,39.2,21.7,28.64,NW,315,0.0,0.0,49,0.00,,,0.00,VWS V14.00,2013-02-16 04:09:00,
2013-02-15 23:14:00,41.2,22.5,28.64,NNW,344,2.7,2.7,47,0.00,,,0.00,VWS V14.00,2013-02-16 04:14:00,
2013-02-15 23:19:00,42.4,22.1,28.64,NE,42,3.6,3.6,44,0.00,,,0.00,VWS V14.00,2013-02-16 04:19:00,
2013-02-15 23:24:00,44.2,22.6,28.64,NNE,28,3.6,4.0,42,0.00,,,0.00,VWS V14.00,2013-02-16 04:24:00,
2013-02-15 23:29:00,44.8,22.5,28.64,WNW,283,3.1,3.1,41,0.00,,,0.00,VWS V14.00,2013-02-16 04:29:00,
2013-02-15 23:34:00,45.1,22.9,28.64,North,350,0.0,0.0,41,0.00,,,0.00,VWS V14.00,2013-02-16 04:34:00,
2013-02-15 23:39:00,45.1,22.9,28.64,NNW,332,0.0,0.0,41,0.00,,,0.00,VWS V14.00,2013-02-16 04:39:00,
2013-02-15 23:44:00,45.1,22.3,28.64,NNW,328,0.0,0.0,40,0.00,,,0.00,VWS V14.00,2013-02-16 04:44:00,
2013-02-15 23:49:00,45.1,22.3,28.64,WSW,239,0.0,0.0,40,0.00,,,0.00,VWS V14.00,2013-02-16 04:49:00,
2013-02-15 23:54:00,44.8,22.0,28.64,NNW,339,2.2,2.2,40,0.00,,,0.00,VWS V14.00,2013-02-16 04:54:00,
2013-02-15 23:59:00,44.6,21.8,28.64,North,349,0.0,0.0,40,0.00,,,0.00,VWS V14.00,2013-02-16 04:59:00,